Tracking 27107 objects as of 20-Mar-2023
HD Live streaming from Space Station
objects crossing your sky now

SL-16 DEB

Track SL-16 DEB now!
10-day predictions


NORAD ID: 22387
Int'l Code: 1992-093CC
Perigee: 807.9 km
Apogee: 968.9 km
Inclination: 70.9 °
Period: 102.6 minutes
Semi major axis: 7259 km
RCS: 0.0087 m2 (small)
Launch date: December 25, 1992
Source: Commonwealth of Independent States (former USSR) (CIS)
Launch site: TYURATAM MISSILE AND SPACE COMPLEX (TTMTR)

Note: This is SATELLITE DEBRIS
Your satellite tracking list
Your tracking list is empty




NASA's NSSDC Master Catalog

Two Line Element Set (TLE):
1 22387U 92093CC  23079.43870688  .00001538  00000-0  95493-3 0  9990
2 22387  70.8903 236.4317 0110866 116.0907 276.6700 14.03619652540816
Source of the keplerian elements: AFSPC